Wind_Speed
15 13 13 14 14 15 16 16 17 18 17 16 16 15 15 16 16 15 14 13 12 11 11 12 12 12 11 12 12 11 10 9 8 7 6 3 2 1 1 0 1 1 1 1 1 1 1 2 3 4 4 4 4 5 5 5 4 4 2 1 3 3 2 3 3 2 3 3 5 5 4 4 3 4 3 3 2 2 3 3 5 4 3 4 5
17 14 13 13 14 15 15 15 16 17 16 16 15 15 15 15 15 14 14 13 12 11 11 11 11 11 10 11 11 9 8 8 7 6 4 2 1 0 1 1 1 2 2 2 2 2 2 3 4 5 5 6 6 5 4 5 4 4 3 1 2 3 4 4 3 3 3 4 5 4 4 3 3 3 3 3 2 3 3 3 4 4 4 5 5
18 15 14 13 13 15 15 15 14 15 15 15 15 14 15 14 13 13 12 12 12 11 10 10 10 10 9 9 9 8 6 5 5 4 3 1 1 2 2 2 3 3 3 4 4 4 4 4 5 5 6 6 6 5 4 5 5 4 3 1 2 4 4 5 4 3 4 4 4 4 3 1 1 2 3 3 2 3 3 4 5 4 5 5 6
18 16 14 14 13 14 15 14 14 14 14 13 14 13 14 14 13 12 11 11 11 10 9 9 9 8 8 7 7 6 5 3 3 2 1 1 2 2 3 3 3 3 4 5 5 6 5 5 6 7 7 6 6 4 4 6 5 4 2 0 2 3 4 4 4 4 3 3 3 4 3 1 1 2 2 3 2 3 3 4 4 4 5 6 6
18 16 15 14 13 14 15 14 14 14 13 12 13 13 13 15 13 12 11 11 11 10 9 9 9 8 7 7 6 4 3 2 1 1 2 2 2 3 3 3 4 4 5 6 6 7 7 7 7 8 8 7 6 4 4 5 5 4 2 1 2 3 4 4 4 4 4 4 3 4 3 2 2 3 2 3 3 3 3 3 3 3 4 6 7
17 15 14 14 13 14 16 15 14 14 13 13 12 12 13 13 13 12 11 12 11 10 9 9 9 8 7 6 5 3 2 2 1 2 3 3 4 4 4 5 5 6 7 7 7 7 7 8 8 9 9 8 7 5 4 6 6 5 3 2 2 3 5 5 5 5 5 5 4 4 4 4 3 3 2 3 4 4 4 3 3 3 4 6 7
16 15 14 13 12 13 15 15 14 14 14 13 13 12 12 12 12 11 11 12 10 9 9 8 7 7 6 5 4 2 1 2 2 3 4 5 5 6 6 6 6 7 7 7 7 8 8 9 9 9 9 9 8 7 6 7 8 7 5 4 4 6 7 8 7 6 6 6 5 4 5 5 4 4 3 3 4 5 4 3 3 4 5 6 7
16 14 14 13 13 12 14 14 14 14 13 13 13 12 12 11 11 11 11 11 10 9 8 7 7 6 5 4 3 2 2 2 3 4 5 6 6 6 7 7 7 7 7 8 8 9 9 9 10 9 9 9 9 8 7 8 9 8 7 7 7 8 9 9 9 8 7 7 6 6 6 6 5 5 4 3 4 5 5 4 4 4 5 6 7
16 14 14 14 13 13 13 14 13 13 12 12 12 12 11 11 11 11 11 10 10 9 8 7 7 6 5 4 3 3 3 4 5 6 7 7 7 7 7 7 7 7 8 8 8 9 9 9 10 10 10 10 10 9 9 10 11 10 10 9 9 10 10 11 10 9 9 8 8 7 7 6 5 6 4 4 4 5 6 5 4 5 5 6 7
15 13 13 13 14 13 13 13 13 12 12 12 11 11 11 10 10 10 9 9 10 9 7 6 6 5 4 4 4 4 5 6 6 6 7 7 8 8 7 7 8 8 8 8 8 8 8 8 9 10 10 11 10 10 10 11 12 12 12 12 11 11 11 12 12 11 11 9 9 8 8 7 6 7 5 5 5 6 6 5 5 5 6 5 6
15 13 12 11 14 12 12 12 11 11 11 11 11 10 10 9 8 8 8 7 7 6 6 5 5 4 4 4 5 5 6 6 6 7 7 7 8 8 7 7 8 8 7 7 7 8 8 8 9 10 10 10 10 10 10 11 12 13 14 14 14 13 12 12 13 14 12 10 10 9 8 8 7 7 6 6 6 6 7 6 6 6 6 6 6
14 14 12 11 13 12 11 11 10 10 10 10 10 9 8 8 7 7 6 6 5 5 5 5 5 4 5 5 5 6 6 6 7 7 6 6 7 7 6 7 7 7 6 7 7 7 8 9 9 10 10 10 10 11 11 11 11 13 14 14 15 15 14 14 14 15 13 11 11 9 8 8 8 9 7 7 7 7 8 8 7 7 7 7 6
15 14 13 12 13 13 11 11 10 10 10 9 8 8 8 7 7 6 6 5 5 5 5 5 5 5 5 5 6 6 6 6 6 6 6 5 6 6 6 6 6 6 6 6 7 8 8 9 9 10 10 10 10 11 11 11 11 12 14 14 15 16 16 16 16 17 16 13 13 11 9 8 9 10 8 8 8 7 8 9 9 8 7 7 7
15 14 13 12 12 13 12 11 10 9 9 9 8 7 7 6 6 6 6 5 5 5 5 4 4 4 5 5 5 6 6 6 5 5 5 5 5 5 6 5 5 6 6 6 7 8 9 10 11 10 10 11 12 11 11 11 11 11 13 14 14 15 17 18 17 18 19 15 14 13 11 9 10 11 9 9 9 9 8 9 9 9 9 8 7
15 15 13 12 12 12 11 11 10 9 8 8 8 7 7 6 6 6 5 5 5 5 4 4 4 4 5 6 5 6 6 5 5 5 5 5 5 5 5 5 5 5 6 6 7 8 9 10 11 12 11 11 12 12 11 11 11 10 11 13 13 14 15 17 17 20 20 15 15 15 13 11 11 12 10 10 10 10 9 9 9 9 9 9 8
14 15 13 11 11 11 10 10 10 9 8 8 7 7 7 7 6 6 5 5 5 4 4 5 5 5 6 6 5 5 5 5 6 5 5 5 5 5 5 4 5 5 6 6 7 9 10 10 11 12 13 12 13 13 12 12 12 11 11 11 11 13 14 15 16 19 19 16 17 16 14 13 13 13 11 11 10 10 10 10 10 10 10 9 9
14 15 13 11 10 10 9 8 9 8 7 7 7 7 7 6 6 5 5 5 5 5 5 5 5 5 5 6 5 5 5 6 6 6 5 5 4 4 4 4 5 5 6 7 8 9 10 11 12 13 14 14 14 14 12 12 12 12 12 11 10 11 13 14 14 16 17 16 18 18 17 15 14 13 12 12 11 11 10 10 10 10 10 10 9
14 15 13 11 10 10 8 8 8 8 7 7 7 7 7 6 6 5 5 6 6 5 5 5 5 5 5 5 5 5 6 6 6 5 4 4 3 3 4 4 5 6 6 8 9 10 11 12 12 13 14 14 15 15 13 12 12 12 12 11 10 10 11 12 13 15 15 16 19 19 19 18 15 14 13 13 12 11 11 10 9 10 11 11 10
14 14 13 11 10 10 8 8 8 8 8 7 8 7 7 6 6 5 5 6 6 6 6 5 5 5 5 6 5 5 5 5 4 4 3 3 3 3 4 5 6 6 7 9 10 11 12 13 13 13 14 14 14 15 14 13 12 12 11 11 10 10 10 11 12 12 12 14 17 17 19 20 17 15 14 14 13 12 12 10 10 11 11 11 12
14 14 13 11 10 10 9 8 8 8 8 8 8 7 7 6 6 5 5 6 6 6 6 5 5 4 5 5 4 4 4 4 3 3 3 3 3 4 5 6 7 8 8 10 12 13 13 14 15 15 14 15 15 15 15 14 12 12 12 11 10 9 10 10 9 9 11 13 14 16 19 19 17 15 14 14 14 13 12 12 11 11 11 11 13
14 14 13 12 11 10 9 8 8 8 8 7 7 7 7 7 6 5 5 6 6 7 7 6 5 4 4 4 3 2 3 4 3 4 4 3 4 5 6 7 8 9 9 11 13 14 14 15 16 16 16 17 17 16 15 14 12 12 13 12 11 9 8 8 8 8 10 11 13 16 18 19 17 16 15 14 14 13 13 13 12 12 12 11 12
13 13 12 12 12 11 10 9 9 8 8 8 7 7 7 7 6 6 6 6 6 7 7 6 5 4 3 3 3 3 4 4 4 3 3 4 5 6 6 8 9 10 11 12 13 15 16 16 17 17 17 18 18 16 14 14 13 13 13 12 11 10 7 6 7 8 8 9 12 14 16 18 18 17 16 15 15 14 14 13 12 13 13 12 13
12 12 11 12 12 12 11 10 10 9 8 8 8 9 8 8 7 7 6 6 7 7 6 5 5 4 4 5 5 5 5 4 3 2 2 4 5 5 6 8 9 11 12 13 14 16 16 17 18 18 18 18 17 15 13 14 13 11 11 11 11 9 6 6 6 7 8 9 11 12 14 17 19 19 18 16 15 15 15 14 13 14 14 13 14
12 11 11 12 12 11 10 10 11 10 9 8 9 9 10 10 9 8 7 7 7 7 7 6 5 5 5 6 6 6 4 3 2 1 3 4 5 7 8 9 11 13 15 15 16 17 17 18 19 19 19 18 16 14 11 11 11 10 9 10 9 7 6 6 5 7 8 8 10 11 13 16 19 19 18 17 16 16 16 15 14 14 15 14 15
11 11 11 11 11 11 10 10 11 11 10 9 9 10 10 10 10 9 8 8 8 7 7 6 6 6 7 7 6 6 5 3 3 2 4 5 6 8 9 11 12 13 15 17 17 18 19 20 20 20 20 18 17 16 12 9 9 9 9 9 9 7 6 6 6 7 7 7 8 10 12 15 18 20 19 18 17 18 17 16 15 15 15 15 15
10 10 10 10 11 10 10 9 10 11 10 9 9 9 9 9 9 9 9 9 9 8 7 7 7 8 8 7 6 5 4 4 4 4 4 5 6 8 8 10 11 11 14 17 18 19 20 20 21 21 20 18 16 15 12 10 9 9 9 9 9 8 6 6 6 7 7 7 7 8 10 14 18 21 21 19 19 19 19 18 17 15 16 16 16
9 9 9 9 10 10 10 9 9 10 10 9 8 8 8 8 8 10 10 9 9 9 8 7 8 9 9 8 6 5 4 4 5 5 5 5 6 8 8 10 10 11 14 18 18 19 20 20 21 20 20 18 16 13 11 11 9 8 9 9 9 8 7 7 7 7 7 7 7 8 10 13 17 21 21 21 20 19 20 20 18 15 16 17 17
8 8 8 9 10 10 11 10 10 10 9 9 8 7 7 7 7 8 9 10 10 8 7 8 9 10 10 9 8 5 5 5 5 5 5 6 6 7 9 10 11 11 13 17 19 20 21 21 21 20 19 19 17 14 12 11 9 8 8 8 9 8 8 8 8 8 8 7 8 9 11 14 16 19 20 21 20 19 21 21 19 16 17 18 18
7 7 8 8 9 10 11 10 10 10 9 8 8 7 7 6 7 7 7 9 8 7 8 8 8 9 9 9 8 6 5 6 6 5 6 6 7 8 9 10 11 13 14 16 19 20 21 21 21 20 20 19 18 15 12 10 8 8 8 7 8 8 9 9 9 10 8 8 8 9 11 13 15 17 19 21 20 20 21 21 20 18 17 19 18
6 6 7 7 8 10 10 10 10 10 9 8 8 8 7 7 7 7 7 7 7 8 9 8 7 7 8 9 9 8 7 6 6 6 7 8 8 9 10 10 11 13 14 16 19 20 21 22 21 20 19 18 17 15 12 10 9 9 9 8 7 8 9 9 9 10 9 8 9 9 10 12 14 16 19 20 20 21 22 21 22 20 19 20 19
5 5 6 6 7 8 8 9 10 10 8 8 8 8 7 6 6 7 7 7 8 9 8 8 8 8 9 10 10 10 9 7 7 7 7 9 9 10 10 11 11 12 14 17 20 20 20 22 22 20 18 16 14 13 11 11 9 8 10 10 9 8 9 8 8 9 10 9 10 10 10 11 13 15 18 20 20 21 22 22 23 22 21 20 20
5 5 5 4 5 6 8 8 8 9 7 7 9 8 7 6 7 7 6 8 8 9 9 9 9 9 10 10 9 10 10 8 8 8 8 9 10 10 11 11 11 13 15 18 20 20 19 21 22 20 18 15 13 12 12 13 11 10 11 13 11 9 9 9 8 9 10 11 11 11 10 10 12 14 17 20 21 22 23 23 23 23 22 20 20
4 3 3 3 4 4 5 5 6 8 7 6 9 8 7 7 7 7 7 8 9 9 10 10 10 11 12 11 10 10 10 8 8 9 9 10 11 12 12 11 11 14 17 19 20 19 16 18 20 17 14 14 11 10 11 12 12 12 12 14 13 11 11 10 9 10 11 13 12 11 12 11 12 14 17 20 21 21 23 24 24 24 23 21 20
4 3 1 3 4 3 3 2 2 5 5 6 8 8 7 7 7 7 8 9 9 10 10 10 11 12 13 12 12 11 10 9 9 9 9 10 11 12 12 11 12 15 17 19 20 18 16 16 17 14 11 10 8 9 11 11 12 12 13 14 14 12 12 11 11 12 13 14 14 12 13 13 14 15 16 20 22 22 23 24 24 25 25 22 21
6 5 3 3 4 4 4 3 3 3 4 5 6 8 8 8 8 9 9 10 11 11 11 11 11 11 12 13 14 13 12 10 10 9 9 10 12 12 13 13 13 16 17 19 20 18 17 16 14 12 10 8 8 10 11 12 12 12 13 13 11 10 10 11 12 12 14 15 15 14 13 14 15 15 15 18 21 22 22 23 24 26 25 23 23
7 7 6 5 5 6 5 5 5 5 5 5 5 6 8 9 9 10 10 12 13 13 13 13 13 12 11 13 15 15 13 12 11 10 10 11 12 11 12 14 14 15 17 20 20 17 16 15 12 11 9 8 10 11 12 12 12 12 13 12 10 10 10 10 11 11 12 13 15 16 15 14 14 15 16 17 20 22 22 22 24 26 26 25 25
9 7 6 5 4 5 5 5 6 6 6 6 6 5 7 8 10 11 12 13 14 15 15 15 15 16 15 15 17 16 14 13 12 12 13 13 13 12 11 14 15 15 17 20 18 16 15 14 11 9 8 9 9 10 12 12 13 12 13 12 10 10 10 10 10 8 9 10 12 15 16 15 14 15 16 18 19 20 22 23 24 25 26 26 26
11 9 8 7 5 4 4 5 5 6 6 7 7 6 6 8 9 11 13 14 15 17 17 17 17 18 18 18 19 18 16 15 14 14 14 14 14 12 11 14 15 15 18 19 17 16 15 13 9 8 8 9 8 10 12 13 13 12 12 12 11 11 9 8 7 6 5 6 9 13 15 15 14 14 16 18 19 19 21 23 24 25 26 26 26
13 12 10 9 7 6 6 5 5 5 6 7 8 8 8 9 10 11 12 13 14 16 18 19 19 19 19 20 20 19 19 17 17 16 15 14 12 10 10 13 14 16 18 17 15 16 15 11 8 7 7 7 7 8 11 13 13 12 12 12 11 12 12 8 6 6 3 4 7 10 12 14 15 14 15 18 19 20 20 22 23 25 26 27 27
15 13 11 11 10 8 8 7 6 5 6 7 8 9 11 12 13 13 13 13 14 15 16 18 19 19 20 21 20 20 20 19 19 17 16 15 13 12 12 12 13 14 16 16 15 16 14 9 6 6 6 6 7 8 11 14 14 13 12 11 10 12 14 11 7 6 4 2 5 9 11 13 14 15 15 16 19 20 21 21 23 24 25 26 27
16 15 13 13 12 11 10 10 8 8 9 9 10 10 12 13 15 16 16 16 16 16 17 17 17 18 20 21 20 21 21 21 19 17 16 16 15 15 14 12 11 12 13 16 17 16 11 5 4 4 3 4 6 8 11 14 14 13 13 11 8 9 13 13 9 8 5 3 5 8 10 12 13 14 15 16 18 21 23 23 23 24 24 25 26
17 17 16 15 14 13 13 11 11 11 12 12 13 14 14 14 15 16 16 16 16 17 17 17 18 19 19 19 19 21 22 22 19 16 16 16 16 15 14 13 13 13 14 17 17 15 9 4 3 3 3 4 6 7 10 13 13 13 13 10 7 7 10 12 9 9 7 4 4 7 9 10 13 14 14 16 18 20 22 23 24 24 24 25 26
16 18 18 17 15 14 14 13 12 13 14 15 15 15 15 15 15 16 17 18 18 20 20 20 21 21 21 21 20 22 24 23 20 17 17 17 17 15 14 14 16 16 17 17 16 13 6 3 2 2 4 5 5 7 10 11 11 12 12 10 8 7 7 8 7 8 8 6 4 4 8 9 11 13 12 14 17 19 21 22 23 25 25 25 26
16 17 17 17 16 16 15 14 13 14 15 16 16 16 17 17 17 18 19 21 22 23 24 24 24 24 25 23 21 23 25 24 22 20 19 18 17 16 14 16 18 18 17 16 15 10 5 3 1 2 5 6 6 7 10 12 12 10 9 10 9 7 6 8 8 7 8 8 6 6 5 7 9 10 11 13 15 16 18 19 21 22 24 25 25
13 15 15 15 16 16 16 14 14 15 15 16 16 17 18 18 19 19 20 22 23 24 24 23 22 21 22 19 18 21 23 21 21 21 20 18 18 18 16 16 16 16 15 14 12 7 4 3 1 2 5 7 8 8 10 14 14 11 9 9 7 6 8 10 8 6 7 7 6 7 7 4 5 8 11 13 14 15 15 17 19 20 21 22 23
10 11 10 11 13 14 15 14 14 15 15 15 15 16 18 18 19 20 21 22 22 22 21 20 19 18 20 19 19 22 21 19 19 20 20 21 21 19 15 14 13 13 12 10 6 3 3 3 2 3 5 7 9 9 9 11 12 11 11 10 8 7 8 10 9 7 6 6 5 6 8 8 6 5 7 9 12 15 15 16 17 18 19 19 20
6 6 7 8 10 12 13 13 14 15 15 15 14 15 16 17 18 19 20 21 21 20 20 20 20 19 20 19 20 21 20 21 21 20 20 20 18 14 13 13 11 10 8 5 2 2 2 3 3 3 5 7 9 9 8 8 8 9 9 10 10 8 8 8 8 8 8 7 5 5 6 8 7 6 5 5 6 9 11 13 14 15 17 18 19
3 4 5 6 6 8 8 9 10 12 13 14 13 14 14 15 16 18 19 19 19 19 19 19 20 19 18 17 17 19 19 20 20 20 20 16 14 13 11 11 9 6 4 3 1 0 3 4 3 3 5 7 7 7 8 8 8 9 8 9 9 8 9 9 8 7 9 9 7 5 6 6 6 5 4 5 5 6 5 5 6 8 11 13 15
4 3 3 3 4 5 5 5 6 7 9 11 12 13 14 15 16 17 18 17 17 18 19 19 19 19 19 17 16 16 16 16 16 16 15 13 12 12 8 5 3 2 3 2 0 1 3 3 3 4 4 5 6 7 8 8 9 10 10 10 9 8 9 9 8 7 7 8 8 8 8 7 7 5 4 4 5 5 4 4 4 4 4 4 6
1 1 1 1 3 3 4 4 5 6 7 9 10 11 13 14 13 14 14 15 15 16 16 14 13 13 14 13 13 12 11 12 14 13 12 11 10 6 2 1 3 4 3 2 2 2 2 3 3 3 4 4 5 7 8 9 9 10 11 11 10 10 9 9 9 8 8 8 9 10 9 8 9 8 7 6 5 6 5 5 5 4 4 4 4
3 1 0 1 1 1 3 4 4 6 7 7 9 9 10 11 10 10 10 11 12 12 10 8 6 5 5 5 6 6 3 4 9 10 8 7 3 4 6 6 6 4 3 4 3 2 2 3 3 4 5 6 7 8 8 9 10 11 11 11 11 10 10 10 10 10 9 9 10 11 10 10 10 10 10 9 8 9 7 6 5 5 5 6 7
Wind_Direction
154 159 160 159 153 154 158 161 159 154 148 144 145 148 151 150 151 150 148 149 150 143 140 140 136 140 141 139 135 136 135 131 131 129 130 146 169 179 183 110 68 47 38 50 51 23 348 335 339 339 341 342 341 338 324 325 351 3 348 274 246 250 219 185 161 156 149 141 137 142 143 146 154 152 158 165 175 171 164 170 161 158 166 160 154
155 158 160 160 155 156 156 160 162 160 156 149 149 152 157 158 158 158 156 153 152 150 149 145 140 140 139 139 136 134 136 138 135 125 131 157 199 258 327 5 355 354 349 341 331 321 327 324 324 326 329 333 335 334 325 322 335 353 358 322 225 224 207 188 177 169 157 150 144 144 145 152 165 164 173 177 186 182 173 174 161 154 169 167 157
154 155 159 160 156 156 155 156 160 161 158 154 154 154 158 164 165 165 161 155 154 155 153 148 140 137 139 140 138 140 146 145 132 125 143 194 280 310 320 331 332 332 330 326 323 321 323 322 318 318 324 329 330 329 323 318 320 337 355 41 198 207 195 185 182 175 164 156 150 147 142 152 203 195 193 190 190 182 174 179 173 173 174 166 158
153 153 158 158 156 158 157 158 160 160 158 157 159 159 161 164 166 165 161 157 159 157 154 148 139 138 141 139 139 146 157 156 136 143 197 263 292 302 309 318 320 320 319 316 319 318 319 317 312 311 314 317 319 319 318 314 317 335 354 116 198 202 192 190 187 185 174 160 151 146 148 212 263 236 211 199 191 176 178 189 182 184 170 160 159
154 153 157 156 157 160 159 161 162 161 159 157 158 160 161 162 164 164 162 161 161 156 155 152 143 141 139 139 142 145 150 162 172 200 249 267 278 285 290 297 301 307 311 314 317 316 316 314 310 308 308 306 303 303 305 298 300 315 317 263 235 212 202 205 198 196 192 175 160 152 174 215 253 257 231 200 186 169 177 187 179 188 172 157 157
156 151 155 154 158 163 159 160 159 158 158 157 154 153 154 156 161 164 164 162 160 153 154 157 149 144 140 144 150 150 153 179 233 252 258 261 271 281 289 297 301 307 313 316 317 316 315 313 311 310 306 301 295 287 283 278 271 267 253 236 234 224 215 214 208 207 203 188 176 169 196 216 236 260 248 204 182 163 166 174 174 185 180 161 158
157 150 154 155 158 162 160 158 154 154 157 157 153 149 150 152 155 158 161 160 159 157 157 159 153 150 149 159 166 170 202 232 256 261 269 277 287 295 301 304 307 312 316 316 315 312 312 310 308 307 303 300 293 281 268 264 263 261 256 241 229 226 221 218 211 210 208 195 189 180 201 216 223 246 247 214 181 160 159 163 176 186 182 167 162
157 151 155 158 159 159 158 157 152 151 153 155 152 150 151 153 154 156 158 160 164 166 164 161 159 160 164 180 189 206 242 260 273 281 289 294 299 304 305 305 310 316 317 315 314 311 310 310 309 307 301 296 291 282 270 261 260 260 256 248 244 235 227 226 217 212 212 203 199 189 201 213 216 234 235 223 188 159 160 162 179 191 185 171 165
158 153 158 163 161 158 155 155 153 151 151 152 152 152 154 157 157 158 160 164 170 170 168 167 168 172 185 207 227 248 265 282 291 297 297 295 298 302 306 310 315 318 318 316 315 313 312 313 313 311 305 300 294 285 273 264 262 259 255 251 249 246 236 232 223 217 214 210 210 202 205 207 209 229 223 220 205 163 164 167 181 191 185 174 166
156 153 161 166 162 160 156 152 153 153 153 154 155 156 157 159 160 162 166 172 175 172 174 181 187 195 211 230 250 268 284 295 298 297 291 292 299 304 311 315 317 319 320 320 317 316 314 314 316 314 312 308 300 287 273 264 262 259 256 255 251 249 246 237 227 222 217 213 212 206 208 204 203 227 223 217 211 173 168 171 180 188 182 180 173
155 153 158 161 159 163 159 152 153 156 157 159 163 166 164 166 167 169 172 175 176 176 183 195 207 220 236 254 272 286 296 298 295 291 290 296 301 306 312 313 315 318 320 321 320 319 315 315 317 313 313 311 301 289 278 268 264 260 256 256 255 252 249 244 235 229 222 213 209 205 211 204 197 220 223 216 211 182 172 177 184 192 184 182 182
158 153 156 160 161 166 163 155 159 163 163 165 169 173 174 179 182 184 186 187 189 194 204 215 226 243 258 270 282 289 292 289 287 289 295 300 298 300 306 312 314 319 320 322 326 326 321 321 321 316 318 316 306 296 289 282 273 268 264 259 256 255 249 245 241 237 229 217 213 209 213 207 201 219 224 215 208 188 178 184 189 196 190 184 187
160 155 155 159 165 167 164 161 166 169 166 168 171 175 178 185 190 193 196 199 205 212 221 230 240 255 268 274 280 279 280 282 285 291 296 294 292 294 298 307 311 318 321 326 332 328 326 326 326 325 327 324 314 306 303 298 285 276 275 268 259 255 250 245 243 243 237 220 216 214 214 210 209 220 223 214 202 189 183 186 191 193 191 186 190
160 160 155 154 167 168 166 167 170 172 169 172 174 178 180 185 192 194 196 201 207 216 225 238 249 260 269 271 273 274 276 280 285 288 290 289 290 293 295 303 310 319 323 330 332 326 329 329 328 330 331 328 320 313 312 307 295 284 278 274 266 257 252 248 245 246 241 222 217 220 216 210 213 221 221 213 198 186 182 185 191 191 192 187 187
160 162 157 153 164 167 170 171 173 175 174 176 180 183 183 188 197 200 201 204 209 217 231 243 252 259 263 261 258 266 273 276 280 282 282 283 285 290 296 304 310 317 322 332 331 325 332 332 330 328 328 326 319 315 315 310 302 295 281 278 271 261 255 251 247 246 242 227 222 222 216 209 212 219 217 212 198 186 181 182 189 192 195 188 182
160 161 158 156 162 167 171 174 177 177 177 181 185 188 187 192 197 204 209 214 219 220 234 240 246 251 253 256 253 259 269 271 272 272 272 274 281 290 299 307 311 317 321 330 329 324 330 333 330 325 323 322 316 314 313 310 305 300 289 284 274 264 258 253 251 247 240 229 227 224 217 212 212 217 212 210 200 188 184 181 187 194 197 190 182
161 160 159 160 163 167 170 176 183 179 183 192 192 193 192 196 197 206 215 221 228 222 227 232 237 242 242 250 254 260 261 259 260 263 267 270 277 288 297 305 309 317 323 328 326 323 329 331 328 324 322 321 317 313 312 308 303 299 295 290 276 270 266 260 258 248 236 228 229 226 222 217 211 213 209 207 201 189 186 184 186 194 197 191 186
163 162 164 164 165 169 171 178 185 183 188 198 201 202 198 201 201 207 217 219 225 223 223 227 235 241 244 248 250 253 254 256 261 266 269 261 273 290 299 307 308 318 326 325 322 322 331 330 327 325 324 324 320 315 311 306 302 298 295 291 283 277 272 265 262 254 241 234 231 227 227 224 211 209 210 207 200 188 187 187 188 196 197 191 187
166 167 169 170 170 172 173 181 186 185 188 197 203 208 207 210 208 204 215 219 220 221 224 226 234 242 244 246 246 252 262 274 278 281 281 272 289 303 304 314 315 321 327 323 324 328 333 330 326 328 328 325 320 315 310 304 302 300 294 292 289 282 273 263 260 257 249 243 235 226 226 225 213 206 210 208 198 188 190 190 190 199 198 192 186
171 173 174 175 179 178 180 186 186 185 188 198 204 211 212 214 216 209 218 229 229 228 229 229 234 245 248 253 256 263 279 289 295 290 290 299 316 321 320 325 323 324 325 325 332 334 331 327 325 329 329 325 321 316 309 302 302 301 294 289 287 284 276 267 259 252 248 244 237 228 224 223 213 203 207 209 199 189 192 193 192 199 198 194 189
175 179 179 181 188 189 190 190 186 186 189 198 205 213 213 209 218 221 226 239 241 229 224 223 229 241 250 266 272 260 263 274 283 281 296 326 333 337 339 336 331 327 326 326 331 333 330 328 325 325 326 326 325 317 308 305 306 301 294 289 285 281 277 275 266 255 251 245 237 231 224 221 214 202 204 209 201 193 194 196 193 199 200 196 193
176 182 184 186 193 195 199 195 190 190 191 201 205 213 216 208 216 222 226 235 231 218 213 215 223 231 240 256 254 245 244 255 268 274 308 340 338 338 341 338 333 327 328 329 329 330 331 331 328 327 326 326 325 321 316 313 310 301 293 289 285 278 272 277 274 267 257 241 238 231 220 218 213 203 203 206 205 200 199 199 194 198 199 199 199
177 183 186 190 195 197 203 199 197 197 194 202 206 212 218 214 215 218 219 221 220 215 215 218 220 223 235 237 235 239 237 240 260 298 335 340 334 332 335 333 331 328 331 332 328 329 331 331 331 332 332 330 330 328 324 316 310 304 293 287 283 273 265 268 266 266 256 238 238 230 217 215 211 204 203 204 206 206 204 202 197 198 198 200 203
180 182 187 193 196 198 204 203 202 201 199 203 205 210 214 213 213 214 217 218 220 222 223 224 224 222 229 233 236 243 239 244 269 343 335 330 328 327 334 334 334 330 333 335 330 330 331 331 334 335 336 335 334 330 324 316 310 307 296 290 284 259 248 260 251 249 252 247 242 230 217 213 209 206 204 204 206 207 207 205 201 201 200 200 203
183 185 191 194 198 199 204 213 210 202 204 207 207 211 209 209 211 213 215 215 218 224 226 225 227 228 229 231 235 241 239 251 280 320 317 324 329 327 331 331 333 328 330 336 334 334 333 332 336 337 338 338 337 333 329 318 307 304 297 298 296 267 247 255 254 251 257 255 243 230 220 214 210 209 206 205 208 208 208 209 204 204 205 202 202
186 190 193 196 201 201 201 215 220 211 209 207 211 217 212 209 214 216 212 215 220 220 223 224 225 224 227 230 230 239 247 260 287 307 311 325 329 328 326 324 330 327 329 338 339 338 336 335 337 336 338 339 336 335 330 323 312 303 298 297 297 286 261 254 258 262 266 262 245 228 222 217 211 210 208 208 211 211 208 208 205 205 209 205 203
191 194 195 200 201 204 206 211 223 224 219 216 217 221 219 213 218 222 215 217 223 223 225 230 231 224 224 226 220 233 254 260 276 296 312 323 322 323 323 324 330 328 331 341 343 342 338 336 337 335 336 337 338 337 327 322 316 305 301 295 291 287 271 252 247 256 260 256 247 231 224 219 212 210 210 210 213 215 212 210 206 203 211 209 204
193 196 196 204 204 206 214 211 219 230 228 226 227 227 228 219 224 230 222 222 222 222 228 229 232 228 224 220 209 217 244 251 266 291 308 311 314 321 324 328 331 328 332 340 344 344 341 338 337 334 334 337 340 339 330 325 319 310 304 293 286 280 275 258 241 250 255 249 248 239 225 220 216 213 211 212 214 215 214 213 209 203 212 213 207
190 196 196 203 206 207 216 215 219 231 229 228 232 233 235 225 225 230 229 230 221 217 225 224 228 229 224 219 209 211 235 255 269 286 295 299 311 318 322 329 330 331 336 338 339 342 341 339 338 337 337 340 341 339 338 339 333 326 317 302 292 282 281 273 255 254 249 239 246 247 231 221 219 215 212 213 213 213 212 212 210 207 212 215 211
187 191 197 202 207 209 216 216 218 228 227 227 230 230 235 230 226 227 229 233 226 223 224 221 225 228 229 225 217 215 227 253 273 284 293 299 309 315 321 329 330 331 337 338 337 336 338 339 339 340 341 341 340 340 342 344 339 332 325 312 300 292 287 279 265 257 247 235 236 245 240 227 220 214 212 213 212 211 210 208 209 210 211 213 212
183 185 197 204 211 213 217 219 222 232 228 224 234 236 238 241 235 232 233 236 231 228 226 221 221 223 230 230 224 223 229 249 271 280 292 300 307 313 316 323 327 329 334 338 337 333 334 339 340 342 343 341 342 344 346 347 344 331 322 315 309 300 288 277 264 255 249 241 233 232 236 230 222 214 211 213 210 209 210 206 207 212 213 212 212
178 180 189 201 213 212 218 224 226 240 240 226 241 254 253 253 245 238 238 237 232 229 229 226 224 223 229 232 230 231 232 246 265 274 287 296 303 308 311 319 322 326 333 337 337 334 334 336 338 341 341 343 348 346 350 357 354 339 328 325 321 307 288 278 264 253 247 245 239 231 229 226 223 217 210 211 210 208 209 208 208 212 215 212 211
185 181 177 190 208 211 226 235 225 242 259 236 240 256 254 255 251 246 242 236 233 230 228 228 229 230 231 235 235 234 235 245 264 276 288 298 304 306 308 313 314 324 332 335 337 336 332 330 333 340 340 345 350 340 345 355 352 345 335 329 325 313 299 285 268 258 250 247 244 236 230 223 219 217 211 210 211 210 211 212 211 212 215 212 210
208 218 208 199 213 225 255 299 244 250 272 250 247 255 254 255 251 249 246 238 234 232 232 233 236 239 239 241 238 235 240 248 264 278 290 301 306 306 304 305 311 323 328 331 335 334 329 328 331 339 342 345 346 337 344 349 347 344 334 331 326 315 306 293 276 264 257 251 246 239 233 224 217 215 212 211 212 212 213 216 214 213 214 211 210
224 234 249 237 239 263 290 310 299 288 295 277 267 266 262 259 253 248 245 240 236 233 233 236 241 246 247 247 244 239 243 253 262 273 288 299 304 305 300 300 311 321 324 328 332 330 329 330 329 336 345 347 346 346 349 347 344 340 336 338 329 314 305 294 288 275 263 253 245 238 232 227 219 212 212 213 214 214 215 216 215 213 214 213 212
231 240 256 263 262 277 290 292 292 296 300 302 299 279 266 260 256 252 246 241 239 238 238 237 239 242 243 246 248 245 247 257 263 269 281 292 302 303 295 299 311 317 321 325 328 328 329 329 327 335 346 349 348 351 352 351 349 344 344 349 336 321 311 298 297 284 266 253 242 236 231 228 223 212 212 216 216 216 216 217 216 213 215 217 216
229 236 249 256 258 273 284 281 280 283 286 293 300 290 269 261 260 258 252 245 242 243 245 245 243 244 245 246 250 250 251 259 265 269 275 285 296 297 290 297 309 315 319 323 324 324 328 327 326 335 342 347 351 353 357 359 359 356 356 357 345 330 320 309 309 296 268 247 235 231 228 226 224 217 216 220 219 217 217 219 220 217 217 219 220
226 227 233 235 230 247 265 263 269 277 275 276 282 283 273 266 261 258 256 252 248 247 249 252 253 254 256 255 255 254 254 262 268 270 273 282 294 295 289 296 306 314 318 320 319 320 327 325 323 331 338 349 356 357 2 360 358 1 4 3 356 346 339 327 324 315 273 239 226 223 223 221 221 218 216 219 219 219 219 220 221 220 219 218 219
226 230 235 233 226 230 244 250 269 286 279 270 267 268 270 269 268 267 266 262 259 257 257 258 259 259 260 259 258 256 257 262 269 271 272 280 290 286 283 294 305 314 317 320 318 319 324 320 314 323 335 352 357 359 3 356 355 359 2 6 6 360 358 355 351 342 302 245 222 214 218 218 218 219 216 216 217 218 221 221 220 220 220 219 218
225 226 229 231 234 239 247 257 275 292 290 280 271 269 271 272 273 275 276 276 275 272 269 267 265 264 263 263 260 257 259 264 268 269 268 273 276 275 279 290 302 312 317 319 318 316 317 313 306 320 338 353 352 358 0 355 358 357 352 2 11 8 9 12 11 355 333 266 226 211 214 218 219 220 219 217 216 217 220 221 220 219 221 223 222
226 226 229 237 244 251 257 265 273 279 283 284 283 284 280 277 275 274 277 280 281 279 278 277 273 269 268 269 267 261 259 263 265 264 264 269 272 274 278 281 290 303 312 316 316 312 307 297 295 318 351 352 346 355 0 358 359 355 348 352 3 6 12 19 20 7 357 287 239 222 222 221 219 222 222 221 218 218 221 222 221 220 221 225 226
229 231 236 242 249 254 260 265 269 275 280 282 284 287 287 285 278 273 272 273 275 276 275 276 275 274 273 273 270 264 259 260 264 266 264 265 269 271 272 272 283 299 311 314 311 306 296 279 290 329 355 346 342 345 358 3 357 351 347 345 349 343 359 18 18 7 360 312 254 233 237 230 225 226 224 225 224 221 222 223 223 224 224 226 228
231 236 241 243 248 252 257 263 271 277 280 278 277 279 281 283 280 275 273 273 274 275 275 272 272 273 273 273 271 265 259 258 264 268 266 265 265 266 270 280 292 302 309 308 304 299 284 254 277 346 349 336 332 328 346 4 356 350 348 340 341 331 346 17 12 0 0 342 326 268 254 241 237 236 226 229 232 227 225 224 224 225 227 230 231
235 242 246 245 246 249 254 261 270 275 275 273 273 273 274 276 276 274 274 276 277 278 280 278 276 274 271 269 265 264 264 262 264 267 266 265 262 260 269 288 298 302 304 303 298 288 254 221 275 350 346 337 338 328 334 354 356 354 352 338 335 334 345 2 353 353 4 358 359 347 299 254 250 253 240 238 241 235 229 227 227 227 227 230 233
244 248 250 248 248 250 253 258 267 271 273 276 277 276 277 277 276 276 276 277 277 278 280 280 280 276 271 263 255 262 267 264 266 269 268 268 268 269 278 291 298 301 302 299 291 269 223 214 243 320 336 337 341 338 333 346 353 356 0 350 341 339 339 343 340 344 360 2 360 357 352 323 280 271 258 253 250 243 235 232 235 235 232 230 231
257 254 250 249 251 252 254 259 265 270 274 279 280 278 278 278 278 279 279 280 281 281 280 280 278 272 270 269 263 266 268 265 267 271 272 273 275 278 285 290 296 301 299 294 279 236 225 253 271 323 331 327 333 343 342 344 349 353 359 355 349 342 331 334 338 335 340 354 354 346 357 1 349 316 282 271 264 254 243 240 242 239 236 233 228
270 264 257 254 257 258 258 260 263 267 272 274 275 276 275 276 277 278 280 282 282 281 280 279 276 272 272 272 269 271 272 267 265 268 273 274 271 272 281 289 297 299 289 275 245 211 285 321 337 328 315 320 333 347 350 348 344 348 350 343 344 342 332 332 336 332 328 331 336 334 345 354 355 350 329 309 294 273 256 254 254 246 240 235 234
274 277 268 260 260 261 259 260 264 268 272 273 275 278 279 281 283 284 285 284 282 280 278 278 278 278 281 280 277 278 275 268 264 266 268 264 260 266 279 289 293 287 259 217 197 313 352 347 335 320 319 332 344 345 345 345 338 339 340 333 334 331 324 327 329 330 326 320 319 322 334 342 341 332 316 318 328 324 311 298 285 266 253 244 246
270 273 261 245 245 259 266 268 274 278 280 284 287 290 291 292 292 291 290 287 283 282 283 285 285 284 285 282 278 273 265 261 260 256 251 248 259 270 280 292 279 214 186 190 195 16 13 0 344 351 352 347 346 339 337 338 332 332 333 327 327 324 318 319 322 324 321 319 317 313 313 318 317 300 284 294 309 319 321 326 341 337 296 269 262
223 231 243 235 246 264 277 279 279 282 290 296 296 297 297 297 296 294 293 291 288 289 293 298 297 293 285 274 270 266 253 244 241 238 241 252 266 272 269 92 123 143 142 94 56 44 29 27 19 6 0 353 345 336 333 332 328 327 327 325 324 324 321 315 314 315 313 312 311 309 307 305 306 297 284 278 284 292 280 277 306 322 312 304 296
132 143 348 1 317 268 273 289 292 288 292 294 297 301 301 304 306 301 296 293 289 290 301 318 331 341 327 293 290 292 271 217 220 229 242 249 239 121 113 102 110 126 91 69 63 60 46 29 27 5 351 350 344 336 334 330 324 320 321 324 323 322 320 312 307 307 306 305 303 304 307 306 305 298 289 279 280 288 281 273 287 292 283 278 282
Height
1548 1549 1550 1550 1552 1552 1554 1555 1557 1558 1559 1560 1561 1562 1562 1564 1564 1565 1566 1567 1568 1569 1569 1569 1570 1570 1571 1572 1572 1572 1573 1573 1572 1572 1573 1575 1575 1575 1575 1575 1574 1574 1574 1574 1575 1575 1575 1574 1574 1574 1574 1575 1574 1574 1574 1573 1573 1573 1573 1573 1572 1572 1572 1572 1572 1571 1571 1571 1571 1571 1571 1571 1571 1570 1570 1570 1570 1570 1570 1570 1571 1572 1572 1572 1571
1548 1550 1550 1551 1552 1553 1554 1556 1557 1558 1560 1561 1562 1563 1563 1564 1565 1566 1567 1568 1568 1569 1569 1570 1570 1571 1572 1572 1572 1572 1573 1573 1573 1573 1573 1575 1575 1576 1575 1575 1575 1575 1574 1575 1575 1575 1575 1575 1575 1574 1574 1574 1574 1574 1574 1573 1573 1573 1573 1572 1572 1572 1572 1572 1572 1572 1572 1571 1571 1571 1571 1571 1571 1570 1570 1570 1570 1570 1570 1571 1571 1572 1573 1572 1571
1549 1550 1551 1552 1553 1554 1555 1556 1557 1558 1560 1561 1562 1563 1564 1565 1566 1567 1567 1568 1569 1569 1570 1570 1571 1571 1572 1572 1573 1573 1574 1574 1573 1573 1574 1575 1576 1576 1576 1576 1575 1575 1575 1575 1575 1575 1575 1575 1575 1574 1574 1574 1574 1574 1574 1573 1573 1573 1572 1572 1572 1572 1572 1572 1572 1572 1572 1572 1572 1572 1571 1571 1571 1570 1570 1570 1570 1571 1570 1571 1571 1572 1572 1572 1572
1549 1551 1552 1553 1554 1555 1555 1556 1558 1559 1560 1561 1562 1563 1565 1566 1566 1567 1568 1569 1569 1570 1571 1571 1571 1572 1572 1573 1573 1573 1574 1574 1574 1574 1574 1575 1576 1576 1576 1576 1576 1575 1575 1575 1575 1575 1575 1575 1574 1574 1574 1574 1574 1574 1574 1573 1573 1573 1572 1572 1572 1572 1572 1572 1572 1572 1572 1572 1572 1572 1572 1571 1571 1570 1570 1570 1570 1571 1570 1571 1571 1571 1571 1572 1572
1550 1551 1552 1554 1555 1555 1556 1557 1558 1559 1560 1561 1562 1564 1565 1566 1567 1568 1568 1569 1570 1570 1571 1572 1572 1572 1573 1573 1573 1574 1574 1574 1574 1574 1575 1576 1576 1576 1576 1576 1576 1576 1575 1575 1575 1575 1574 1574 1574 1574 1574 1573 1573 1573 1574 1573 1573 1573 1573 1573 1572 1572 1572 1572 1572 1572 1572 1572 1572 1572 1572 1572 1571 1570 1570 1570 1570 1571 1570 1571 1571 1571 1571 1572 1572
1551 1552 1553 1555 1556 1556 1557 1558 1559 1560 1561 1562 1563 1564 1565 1566 1567 1568 1569 1570 1570 1571 1571 1572 1572 1573 1573 1573 1574 1574 1574 1574 1574 1575 1575 1576 1576 1576 1576 1576 1576 1575 1575 1575 1575 1574 1574 1574 1573 1573 1573 1573 1573 1573 1573 1573 1573 1573 1572 1572 1572 1572 1572 1572 1572 1572 1572 1572 1572 1572 1572 1572 1571 1570 1570 1570 1570 1571 1571 1571 1571 1571 1571 1571 1572
1552 1553 1554 1555 1556 1557 1558 1559 1560 1561 1562 1563 1564 1564 1565 1566 1567 1568 1569 1570 1570 1571 1572 1572 1572 1573 1573 1574 1574 1574 1574 1574 1574 1575 1576 1576 1576 1576 1575 1575 1575 1575 1575 1574 1574 1574 1574 1573 1573 1573 1573 1573 1573 1573 1573 1572 1572 1572 1572 1572 1571 1571 1571 1571 1571 1571 1571 1571 1571 1572 1572 1572 1571 1570 1570 1570 1570 1571 1571 1571 1571 1571 1571 1571 1572
1553 1554 1555 1556 1557 1558 1559 1559 1560 1561 1562 1563 1564 1565 1566 1567 1568 1569 1569 1570 1571 1571 1572 1572 1573 1573 1573 1574 1574 1574 1574 1574 1575 1575 1576 1576 1576 1575 1575 1575 1574 1574 1574 1574 1574 1574 1573 1573 1573 1573 1572 1572 1572 1572 1572 1571 1572 1571 1571 1571 1570 1570 1570 1570 1570 1570 1570 1571 1571 1571 1572 1572 1571 1570 1570 1571 1571 1571 1571 1571 1571 1571 1571 1571 1572
1554 1555 1555 1557 1557 1559 1559 1560 1561 1562 1563 1564 1565 1565 1566 1567 1568 1569 1569 1570 1571 1572 1572 1572 1573 1573 1573 1574 1574 1574 1574 1574 1575 1575 1575 1575 1575 1575 1574 1574 1574 1574 1574 1574 1573 1573 1573 1572 1572 1572 1572 1571 1571 1571 1571 1571 1571 1571 1570 1570 1569 1569 1569 1570 1570 1569 1569 1569 1570 1570 1571 1571 1571 1570 1570 1571 1571 1571 1571 1572 1571 1571 1571 1571 1572
1554 1555 1556 1557 1558 1559 1560 1561 1561 1562 1563 1564 1565 1566 1567 1568 1568 1569 1570 1571 1571 1572 1572 1573 1573 1573 1573 1574 1574 1574 1574 1574 1575 1575 1575 1575 1575 1574 1574 1574 1574 1574 1574 1573 1573 1573 1572 1572 1571 1571 1571 1571 1570 1569 1569 1570 1570 1570 1570 1569 1569 1569 1569 1569 1569 1568 1568 1568 1569 1569 1570 1570 1570 1569 1569 1570 1571 1571 1571 1572 1572 1571 1571 1571 1572
1554 1556 1557 1558 1559 1559 1560 1561 1562 1563 1564 1565 1566 1567 1568 1568 1569 1570 1570 1571 1571 1572 1572 1573 1573 1573 1573 1574 1574 1574 1574 1574 1575 1575 1575 1575 1574 1574 1573 1573 1573 1573 1573 1573 1573 1573 1572 1571 1571 1570 1570 1570 1569 1568 1568 1568 1568 1568 1568 1568 1568 1568 1568 1568 1568 1568 1567 1567 1568 1568 1569 1569 1569 1569 1569 1570 1571 1571 1572 1572 1572 1572 1572 1572 1572
1555 1556 1557 1558 1559 1560 1561 1562 1563 1564 1564 1565 1566 1567 1568 1569 1569 1570 1570 1571 1571 1572 1572 1572 1573 1573 1573 1573 1573 1574 1574 1574 1574 1574 1574 1574 1574 1573 1573 1573 1573 1573 1573 1573 1573 1572 1572 1571 1570 1569 1569 1569 1569 1568 1568 1567 1567 1566 1566 1567 1567 1567 1567 1567 1567 1567 1567 1566 1567 1567 1567 1568 1568 1568 1568 1569 1570 1571 1571 1572 1572 1572 1572 1572 1572
1555 1556 1558 1559 1560 1561 1562 1562 1563 1564 1565 1566 1567 1567 1568 1569 1570 1570 1571 1571 1571 1572 1572 1572 1572 1573 1573 1573 1573 1574 1574 1574 1574 1574 1574 1574 1573 1573 1573 1573 1572 1572 1572 1572 1573 1572 1571 1571 1570 1570 1569 1569 1569 1568 1568 1567 1567 1565 1565 1565 1565 1565 1565 1565 1565 1565 1565 1565 1565 1566 1566 1567 1567 1567 1568 1569 1570 1571 1571 1572 1572 1572 1572 1572 1572
1555 1557 1558 1559 1561 1561 1562 1563 1564 1565 1566 1566 1567 1568 1568 1569 1570 1570 1571 1571 1571 1572 1572 1572 1572 1572 1572 1573 1573 1574 1574 1574 1574 1574 1574 1573 1573 1573 1572 1572 1572 1572 1572 1572 1572 1572 1571 1571 1570 1570 1569 1569 1568 1568 1567 1566 1566 1565 1564 1563 1563 1563 1563 1563 1563 1564 1564 1563 1563 1564 1565 1566 1566 1566 1567 1568 1569 1570 1571 1571 1572 1572 1572 1572 1573
1556 1557 1558 1560 1561 1562 1563 1563 1564 1565 1566 1567 1567 1568 1569 1569 1570 1570 1571 1571 1571 1571 1572 1572 1572 1572 1572 1573 1573 1574 1573 1573 1573 1573 1573 1573 1573 1572 1572 1572 1572 1572 1572 1572 1572 1572 1572 1571 1571 1570 1569 1568 1567 1566 1566 1565 1564 1564 1563 1562 1562 1562 1561 1561 1561 1562 1562 1561 1561 1562 1563 1564 1565 1565 1566 1567 1568 1569 1570 1571 1572 1572 1572 1573 1574
1557 1558 1559 1560 1561 1562 1563 1564 1565 1565 1566 1567 1568 1568 1569 1570 1570 1571 1571 1571 1571 1571 1572 1572 1572 1573 1573 1573 1573 1573 1573 1573 1573 1573 1573 1572 1572 1572 1572 1572 1572 1572 1572 1572 1572 1572 1571 1571 1570 1569 1568 1567 1566 1565 1565 1564 1563 1563 1562 1561 1561 1560 1560 1559 1559 1560 1560 1560 1560 1561 1562 1563 1564 1565 1566 1566 1567 1568 1570 1571 1571 1572 1572 1573 1574
1558 1559 1560 1561 1562 1563 1563 1564 1565 1566 1566 1567 1568 1568 1569 1570 1570 1571 1571 1571 1571 1572 1572 1572 1572 1573 1573 1573 1573 1573 1573 1573 1572 1572 1572 1572 1572 1572 1572 1572 1572 1571 1571 1572 1572 1572 1571 1571 1570 1569 1568 1567 1565 1564 1563 1562 1562 1562 1561 1560 1559 1559 1558 1557 1557 1558 1559 1558 1558 1559 1561 1562 1563 1564 1565 1566 1567 1568 1569 1570 1571 1572 1572 1573 1574
1558 1560 1561 1561 1562 1563 1564 1565 1565 1566 1567 1567 1568 1569 1569 1570 1570 1571 1571 1572 1572 1572 1572 1572 1573 1573 1573 1573 1573 1573 1573 1572 1572 1572 1572 1572 1572 1572 1572 1571 1571 1571 1572 1572 1572 1572 1571 1570 1569 1568 1567 1566 1564 1563 1562 1561 1561 1561 1561 1560 1559 1558 1557 1556 1556 1556 1556 1556 1557 1558 1560 1562 1563 1564 1564 1565 1566 1567 1568 1569 1571 1571 1572 1573 1574
1559 1560 1561 1562 1563 1564 1565 1565 1566 1567 1568 1568 1569 1569 1570 1570 1571 1571 1572 1572 1572 1573 1573 1573 1573 1573 1573 1573 1573 1573 1573 1572 1572 1572 1572 1572 1572 1572 1571 1571 1571 1571 1572 1571 1571 1571 1571 1570 1568 1568 1566 1565 1563 1562 1561 1560 1560 1560 1560 1559 1558 1557 1556 1556 1555 1554 1554 1554 1555 1557 1559 1562 1563 1563 1564 1565 1566 1567 1568 1569 1570 1571 1572 1573 1574
1559 1560 1561 1562 1563 1565 1565 1566 1567 1567 1568 1568 1569 1569 1570 1570 1571 1571 1572 1572 1573 1573 1573 1573 1573 1573 1573 1573 1573 1573 1573 1572 1572 1572 1572 1572 1572 1572 1571 1571 1571 1571 1571 1571 1570 1571 1570 1569 1567 1566 1565 1564 1562 1560 1559 1558 1558 1558 1558 1558 1558 1557 1555 1555 1553 1553 1553 1553 1554 1556 1557 1560 1562 1563 1564 1565 1565 1566 1567 1568 1569 1570 1571 1572 1574
1559 1560 1561 1563 1564 1565 1566 1566 1567 1568 1568 1569 1569 1569 1570 1571 1571 1571 1572 1572 1573 1573 1573 1573 1573 1573 1573 1573 1573 1573 1573 1573 1573 1573 1572 1572 1572 1571 1571 1571 1571 1571 1571 1570 1569 1569 1568 1567 1566 1565 1563 1562 1561 1559 1558 1557 1556 1556 1556 1556 1556 1555 1555 1554 1552 1552 1552 1552 1553 1555 1556 1558 1561 1562 1563 1564 1565 1566 1567 1568 1569 1570 1571 1572 1573
1560 1561 1561 1563 1564 1565 1566 1567 1567 1568 1568 1569 1569 1570 1570 1571 1571 1571 1572 1572 1573 1573 1573 1573 1573 1573 1573 1573 1573 1573 1573 1573 1573 1573 1572 1572 1572 1571 1571 1571 1571 1570 1570 1570 1569 1568 1567 1566 1565 1564 1562 1561 1559 1558 1556 1554 1554 1554 1554 1554 1554 1554 1554 1553 1552 1552 1551 1552 1553 1554 1555 1557 1559 1560 1562 1563 1564 1565 1566 1567 1569 1570 1571 1571 1572
1561 1562 1562 1563 1564 1565 1566 1567 1568 1568 1569 1569 1569 1570 1570 1571 1571 1572 1572 1572 1572 1572 1573 1573 1572 1572 1573 1573 1573 1573 1573 1573 1573 1573 1572 1572 1572 1571 1571 1571 1570 1570 1569 1569 1568 1567 1566 1565 1564 1563 1561 1560 1558 1556 1555 1553 1553 1553 1552 1552 1552 1552 1552 1553 1552 1552 1551 1552 1552 1553 1554 1556 1557 1559 1560 1562 1563 1565 1566 1567 1568 1570 1571 1571 1572
1561 1562 1563 1564 1564 1565 1566 1567 1567 1568 1569 1569 1570 1570 1570 1571 1571 1572 1572 1572 1572 1572 1572 1572 1572 1572 1573 1573 1573 1573 1573 1573 1573 1572 1572 1572 1571 1571 1571 1570 1570 1569 1568 1568 1567 1566 1565 1564 1562 1561 1560 1558 1557 1556 1554 1553 1552 1552 1551 1550 1550 1550 1551 1552 1552 1551 1551 1551 1552 1552 1553 1554 1556 1558 1559 1561 1562 1564 1565 1566 1568 1569 1570 1571 1572
1562 1563 1563 1564 1564 1565 1566 1567 1567 1568 1568 1569 1569 1570 1570 1571 1571 1571 1572 1572 1572 1572 1572 1572 1572 1573 1573 1573 1573 1573 1573 1573 1572 1572 1572 1572 1572 1571 1571 1570 1570 1569 1568 1567 1566 1565 1564 1563 1561 1560 1558 1557 1556 1554 1553 1553 1552 1551 1550 1549 1548 1549 1550 1551 1550 1550 1549 1550 1550 1551 1552 1553 1555 1556 1558 1560 1562 1563 1565 1566 1567 1568 1569 1571 1571
1562 1563 1563 1564 1565 1566 1567 1567 1567 1567 1568 1568 1569 1569 1569 1570 1571 1571 1571 1572 1572 1572 1572 1572 1572 1572 1573 1573 1573 1573 1573 1573 1573 1572 1572 1572 1572 1572 1571 1571 1570 1569 1568 1567 1566 1564 1563 1562 1560 1558 1557 1556 1555 1553 1552 1551 1550 1550 1549 1548 1547 1547 1548 1549 1549 1548 1548 1548 1549 1549 1550 1551 1553 1555 1557 1558 1561 1562 1563 1564 1566 1567 1568 1569 1570
1562 1563 1564 1564 1565 1566 1566 1567 1567 1567 1568 1568 1568 1569 1569 1569 1570 1570 1570 1571 1571 1571 1572 1572 1572 1572 1572 1572 1573 1573 1574 1574 1573 1572 1572 1572 1572 1572 1571 1571 1570 1569 1568 1566 1565 1564 1563 1561 1559 1558 1556 1555 1553 1553 1552 1550 1549 1549 1548 1547 1546 1546 1547 1547 1548 1547 1547 1547 1547 1548 1549 1550 1551 1553 1555 1556 1559 1561 1562 1563 1564 1566 1567 1568 1569
1562 1563 1564 1564 1565 1565 1565 1566 1567 1567 1567 1568 1568 1568 1568 1569 1569 1570 1570 1570 1570 1571 1572 1572 1572 1571 1571 1572 1572 1573 1574 1574 1573 1573 1573 1573 1572 1572 1571 1570 1570 1569 1567 1566 1565 1564 1562 1560 1559 1557 1555 1554 1552 1551 1551 1550 1549 1548 1547 1546 1545 1545 1545 1545 1546 1546 1546 1547 1546 1547 1547 1548 1549 1550 1553 1554 1556 1558 1560 1561 1562 1564 1565 1566 1567
1561 1562 1563 1564 1565 1565 1565 1565 1566 1566 1567 1567 1568 1568 1568 1568 1569 1569 1569 1569 1569 1571 1571 1571 1571 1571 1571 1571 1572 1572 1573 1573 1573 1573 1573 1573 1572 1572 1571 1570 1570 1568 1567 1566 1564 1563 1561 1560 1558 1557 1555 1553 1551 1550 1550 1549 1548 1547 1546 1545 1545 1544 1544 1543 1543 1544 1545 1545 1546 1546 1546 1547 1547 1549 1551 1553 1554 1555 1557 1559 1561 1562 1563 1564 1566
1561 1562 1563 1564 1564 1564 1565 1565 1566 1566 1567 1568 1568 1568 1568 1568 1568 1568 1568 1568 1569 1570 1570 1570 1571 1571 1571 1571 1571 1571 1572 1573 1573 1573 1573 1572 1571 1571 1570 1570 1570 1568 1567 1565 1564 1562 1561 1559 1558 1556 1554 1553 1551 1550 1549 1548 1547 1546 1545 1545 1544 1543 1543 1542 1542 1542 1543 1544 1544 1544 1544 1545 1546 1547 1549 1550 1552 1553 1555 1557 1559 1560 1561 1562 1564
1561 1562 1563 1563 1563 1564 1565 1565 1566 1566 1566 1567 1567 1567 1567 1567 1567 1567 1568 1568 1569 1569 1569 1570 1571 1571 1571 1570 1570 1571 1571 1572 1572 1572 1572 1572 1571 1571 1570 1569 1569 1568 1567 1565 1563 1562 1560 1559 1557 1555 1554 1553 1551 1550 1549 1548 1547 1546 1545 1544 1543 1542 1542 1542 1541 1541 1541 1542 1542 1543 1543 1544 1544 1545 1547 1548 1550 1552 1553 1555 1556 1558 1559 1561 1562
1560 1561 1562 1563 1563 1564 1565 1565 1565 1565 1565 1567 1566 1566 1566 1566 1566 1567 1567 1568 1568 1569 1569 1570 1570 1570 1570 1569 1570 1570 1570 1571 1572 1571 1571 1571 1571 1570 1569 1569 1568 1567 1566 1565 1563 1561 1559 1558 1556 1554 1553 1552 1551 1550 1549 1548 1547 1546 1545 1543 1542 1541 1541 1540 1541 1541 1541 1540 1541 1541 1542 1542 1543 1544 1545 1547 1548 1550 1552 1553 1554 1556 1558 1559 1561
1560 1560 1561 1562 1563 1563 1564 1563 1564 1564 1564 1565 1566 1566 1566 1566 1566 1567 1567 1567 1568 1568 1569 1569 1570 1569 1569 1569 1569 1569 1570 1570 1571 1570 1570 1570 1570 1569 1569 1568 1568 1567 1565 1564 1563 1561 1560 1558 1556 1554 1553 1551 1551 1550 1549 1548 1547 1546 1545 1543 1541 1540 1539 1539 1539 1539 1539 1538 1539 1539 1540 1540 1542 1543 1544 1546 1547 1549 1550 1552 1553 1555 1557 1558 1559
1559 1559 1560 1561 1563 1563 1563 1563 1563 1563 1563 1564 1565 1565 1566 1566 1566 1566 1566 1566 1567 1568 1568 1569 1569 1569 1569 1568 1568 1569 1569 1569 1570 1570 1569 1569 1569 1569 1568 1568 1567 1566 1565 1564 1562 1561 1560 1558 1556 1555 1553 1552 1551 1550 1549 1548 1547 1546 1544 1542 1540 1539 1538 1537 1536 1536 1536 1536 1537 1537 1538 1539 1540 1542 1543 1545 1546 1547 1549 1550 1552 1553 1555 1556 1557
1558 1559 1560 1561 1562 1562 1561 1562 1562 1562 1562 1563 1563 1564 1564 1565 1565 1565 1565 1566 1566 1567 1567 1568 1568 1568 1568 1568 1568 1568 1568 1569 1569 1569 1569 1568 1568 1568 1568 1566 1566 1565 1564 1563 1562 1561 1559 1558 1556 1554 1553 1552 1551 1550 1548 1547 1546 1545 1543 1541 1540 1538 1537 1536 1535 1534 1534 1534 1535 1536 1536 1537 1539 1541 1542 1543 1544 1545 1547 1549 1550 1552 1553 1554 1555
1556 1558 1559 1559 1560 1560 1560 1561 1561 1561 1562 1562 1562 1562 1563 1563 1564 1564 1564 1565 1565 1565 1566 1566 1567 1567 1568 1567 1567 1567 1567 1567 1568 1568 1568 1567 1567 1568 1566 1565 1564 1564 1563 1562 1561 1560 1558 1557 1555 1554 1552 1552 1551 1550 1548 1547 1545 1544 1542 1541 1540 1538 1536 1535 1533 1532 1532 1532 1533 1534 1535 1536 1537 1539 1540 1541 1542 1543 1545 1547 1548 1550 1551 1552 1554
1555 1556 1557 1558 1559 1559 1559 1560 1560 1560 1561 1561 1561 1561 1562 1562 1562 1563 1563 1563 1564 1564 1564 1564 1565 1565 1565 1566 1566 1566 1566 1566 1567 1567 1566 1566 1566 1566 1565 1564 1563 1563 1562 1561 1560 1559 1558 1556 1554 1553 1552 1551 1551 1550 1548 1547 1545 1543 1542 1540 1539 1537 1535 1534 1532 1531 1530 1530 1531 1532 1533 1534 1535 1537 1538 1540 1541 1542 1544 1545 1547 1549 1550 1551 1553
1554 1555 1556 1557 1557 1558 1558 1559 1559 1560 1560 1560 1560 1561 1561 1561 1561 1561 1562 1562 1562 1562 1562 1563 1563 1563 1564 1564 1564 1565 1565 1565 1565 1565 1565 1565 1565 1565 1564 1562 1562 1561 1561 1560 1559 1558 1557 1555 1553 1553 1552 1551 1550 1549 1548 1546 1545 1543 1541 1540 1538 1536 1534 1533 1532 1530 1530 1530 1530 1531 1532 1533 1534 1535 1537 1538 1540 1541 1543 1544 1545 1547 1548 1549 1551
1553 1554 1555 1555 1556 1557 1557 1558 1559 1559 1559 1559 1559 1560 1560 1560 1560 1560 1560 1560 1561 1561 1561 1561 1562 1562 1562 1562 1563 1563 1564 1564 1564 1563 1563 1563 1564 1563 1562 1561 1561 1560 1559 1559 1558 1557 1556 1554 1553 1552 1552 1551 1550 1549 1548 1546 1544 1543 1541 1539 1538 1536 1534 1532 1532 1530 1530 1530 1530 1531 1532 1533 1533 1534 1535 1536 1538 1540 1541 1543 1544 1545 1546 1547 1548
1551 1553 1553 1554 1555 1556 1556 1557 1558 1558 1559 1559 1559 1559 1559 1559 1559 1559 1559 1559 1560 1560 1560 1560 1561 1561 1561 1560 1561 1562 1562 1562 1562 1562 1562 1562 1562 1562 1561 1560 1560 1560 1559 1558 1557 1557 1556 1554 1553 1552 1551 1550 1550 1548 1547 1546 1544 1543 1541 1539 1538 1536 1534 1532 1532 1531 1530 1530 1530 1530 1531 1532 1532 1533 1534 1535 1537 1538 1539 1541 1542 1543 1545 1545 1547
1550 1551 1552 1553 1554 1555 1556 1556 1557 1557 1558 1558 1558 1558 1558 1558 1558 1558 1558 1559 1559 1559 1558 1559 1559 1559 1559 1559 1559 1560 1560 1560 1559 1559 1560 1560 1560 1560 1559 1559 1559 1559 1558 1557 1556 1556 1555 1554 1553 1552 1551 1550 1549 1548 1547 1546 1544 1543 1541 1539 1538 1536 1535 1533 1532 1532 1531 1530 1530 1530 1530 1531 1531 1532 1533 1534 1535 1536 1538 1539 1540 1541 1542 1543 1545
1549 1550 1551 1552 1553 1554 1555 1555 1556 1556 1557 1557 1557 1557 1557 1557 1557 1557 1558 1558 1557 1557 1557 1557 1557 1557 1557 1557 1557 1557 1557 1556 1557 1558 1558 1558 1558 1558 1558 1558 1557 1557 1556 1556 1555 1555 1554 1554 1553 1551 1550 1550 1549 1548 1547 1546 1545 1543 1541 1540 1538 1537 1535 1534 1533 1533 1532 1531 1530 1530 1530 1530 1530 1531 1531 1532 1533 1535 1536 1537 1538 1538 1539 1541 1543
1548 1549 1549 1551 1552 1553 1553 1554 1555 1555 1555 1556 1556 1556 1556 1556 1556 1556 1556 1556 1556 1555 1555 1555 1554 1554 1554 1554 1554 1554 1554 1554 1555 1556 1556 1556 1556 1556 1556 1556 1556 1555 1554 1554 1554 1554 1553 1553 1552 1551 1550 1549 1549 1548 1546 1546 1545 1544 1542 1540 1539 1537 1536 1535 1535 1533 1532 1531 1530 1529 1529 1528 1529 1530 1530 1531 1532 1533 1535 1535 1535 1536 1537 1539 1541
1546 1547 1548 1550 1551 1551 1552 1553 1554 1554 1554 1554 1554 1555 1555 1555 1555 1555 1554 1554 1553 1553 1552 1552 1551 1551 1550 1550 1550 1550 1551 1552 1553 1553 1554 1554 1554 1554 1555 1555 1554 1554 1553 1552 1552 1552 1552 1552 1552 1550 1549 1549 1548 1548 1546 1545 1545 1544 1543 1541 1539 1538 1536 1536 1535 1534 1532 1531 1529 1528 1528 1528 1527 1528 1529 1529 1529 1531 1532 1533 1533 1534 1536 1537 1540
1545 1546 1547 1549 1549 1550 1551 1552 1552 1552 1552 1553 1553 1553 1553 1553 1553 1552 1552 1551 1551 1550 1549 1549 1548 1547 1547 1547 1547 1547 1549 1550 1550 1551 1552 1552 1552 1552 1553 1553 1553 1552 1551 1551 1551 1551 1551 1552 1551 1550 1549 1548 1547 1547 1546 1545 1545 1544 1543 1542 1540 1539 1537 1536 1535 1534 1533 1532 1531 1529 1528 1528 1527 1527 1527 1528 1527 1528 1530 1531 1531 1533 1534 1536 1539
1544 1545 1547 1548 1548 1549 1550 1550 1551 1551 1551 1552 1552 1552 1552 1551 1551 1550 1550 1549 1548 1548 1547 1546 1546 1545 1544 1544 1545 1545 1547 1548 1549 1549 1550 1551 1551 1551 1551 1551 1551 1551 1550 1550 1550 1550 1550 1551 1550 1549 1549 1548 1547 1547 1547 1546 1545 1544 1543 1542 1541 1540 1539 1537 1536 1535 1533 1532 1532 1531 1529 1528 1528 1527 1527 1526 1526 1527 1528 1530 1530 1532 1534 1536 1538
1543 1545 1545 1546 1547 1547 1548 1549 1550 1550 1550 1550 1550 1550 1550 1549 1549 1548 1547 1547 1546 1545 1544 1543 1542 1542 1542 1543 1543 1543 1544 1545 1546 1546 1547 1549 1549 1549 1550 1549 1550 1550 1550 1550 1550 1549 1550 1549 1548 1548 1548 1548 1547 1547 1547 1547 1546 1545 1544 1543 1541 1540 1539 1538 1537 1535 1534 1533 1532 1531 1530 1529 1528 1528 1527 1526 1526 1526 1527 1528 1529 1531 1533 1534 1535
1543 1544 1544 1545 1546 1546 1547 1547 1548 1548 1548 1548 1548 1548 1548 1547 1547 1546 1545 1544 1543 1542 1542 1541 1540 1540 1540 1540 1541 1541 1542 1542 1542 1543 1544 1546 1546 1547 1548 1548 1548 1548 1549 1549 1549 1549 1549 1548 1548 1548 1548 1548 1548 1547 1547 1547 1546 1545 1544 1543 1542 1541 1539 1538 1537 1536 1535 1534 1533 1532 1531 1530 1529 1529 1528 1527 1527 1526 1526 1527 1528 1529 1530 1531 1532
1542 1543 1544 1544 1545 1545 1546 1546 1547 1547 1547 1547 1547 1546 1546 1545 1545 1543 1542 1541 1540 1539 1539 1538 1538 1538 1538 1538 1539 1539 1539 1539 1540 1541 1542 1544 1545 1545 1546 1546 1547 1547 1549 1549 1549 1549 1548 1548 1548 1548 1548 1548 1548 1548 1547 1546 1545 1544 1543 1542 1542 1541 1539 1538 1537 1536 1535 1534 1533 1532 1532 1530 1530 1529 1529 1528 1527 1527 1526 1526 1526 1527 1527 1528 1528
1542 1543 1543 1544 1544 1545 1545 1546 1546 1546 1546 1546 1545 1545 1544 1543 1543 1541 1540 1539 1538 1538 1538 1537 1537 1536 1536 1537 1537 1537 1537 1538 1538 1540 1541 1543 1544 1544 1544 1545 1546 1547 1549 1549 1549 1549 1549 1549 1549 1549 1548 1548 1548 1548 1547 1546 1545 1544 1543 1542 1541 1540 1539 1538 1537 1536 1535 1534 1533 1532 1531 1530 1530 1529 1528 1528 1527 1527 1527 1526 1526 1526 1526 1526 1526
1543 1543 1544 1543 1544 1544 1545 1545 1545 1545 1545 1545 1544 1544 1543 1542 1541 1540 1539 1538 1537 1537 1537 1536 1536 1536 1536 1537 1537 1537 1537 1537 1538 1539 1541 1543 1543 1543 1544 1545 1546 1548 1548 1548 1549 1550 1550 1550 1549 1549 1548 1547 1547 1547 1546 1546 1545 1544 1543 1542 1540 1539 1538 1537 1536 1535 1535 1534 1533 1531 1530 1530 1529 1529 1528 1527 1526 1526 1525 1525 1525 1525 1525 1525 1525